Home   Weather   Yellowknife   Past weeks

Flag for Canada Past Weather in Yellowknife, Northwest Territories, Canada — Yesterday and Last 2 Weeks

Now
25 °F

Sunny.


Feels Like: 18 °F
Forecast: 12 / 42 °F
Wind: 6 mph from South

Location: Yellowknife

Current Time: Apr 24, 2017 at 9:05:27 pm

Latest Report: Apr 24, 2017 at 8:00 pm


Visibility: 15 mi

Pressure: 30.13 "Hg

Humidity: 46%

Dew Point: 7 °F

Location of YellowknifeLocation

Past Weather in Yellowknife — Graph

°F

Yellowknife Temperature Yesterday

Maximum temperature yesterday: 23 °F (at 4:00 pm)
Minimum temperature yesterday: -2 °F (at 6:00 am)
Average temperature yesterday: 11 °F

High & Low Weather Summary for the Past Weeks

 TemperatureHumidityPressure
High36 °F (Apr 13, 2:00 pm)93% (Apr 16, 6:00 am)30.79 "Hg (Apr 16, 6:00 am)
Low-9 °F (Apr 17, 7:00 am)24% (Apr 11, 5:00 pm)29.98 "Hg (Apr 9, 8:00 pm)
Average15 °F58%30.35 "Hg
* Reported Apr 9 7:00 pm — Apr 24 7:00 pm, Yellowknife, Weather by CustomWeather, © 2017

Note: Actual official high and low records may vary slightly from our data, if they occured in-between our weather recording intervals... More about our weather records

Advertising

Yellowknife Weather History for the Previous 24 Hours

Scroll right to see more
 ConditionsComfort  
Time TempWeatherWind HumidityBarometerVisibility
7:00 pm
Mon, Apr 24
27 °FSunny.9 mph46%30.13 "Hg15 mi
6:00 pm28 °FSunny.7 mph43%30.14 "Hg15 mi
5:00 pm27 °FSunny.7 mph46%30.16 "Hg15 mi
4:00 pm27 °FSunny.5 mph39%30.17 "Hg15 mi
3:00 pm25 °FSunny.6 mph46%30.18 "Hg15 mi
2:00 pm25 °FPassing clouds.8 mph42%30.19 "Hg15 mi
1:00 pm21 °FPassing clouds.7 mph42%30.19 "Hg15 mi
12:00 pm18 °FSunny.7 mph49%30.20 "Hg15 mi
11:00 am14 °FSunny.2 mph52%30.22 "Hg15 mi
10:00 am10 °FSunny.7 mph56%30.22 "Hg15 mi
9:00 am7 °FSunny.10 mph61%30.22 "Hg15 mi
8:00 am5 °FSunny.8 mph60%30.23 "Hg15 mi
7:00 am1 °FSunny.9 mph71%30.23 "Hg15 mi
6:00 am1 °FSunny.8 mph71%30.23 "Hg15 mi
5:00 am1 °FClear.7 mph71%30.23 "Hg15 mi
4:00 am3 °FClear.9 mph66%30.24 "Hg15 mi
3:00 am5 °FClear.12 mph66%30.24 "Hg15 mi
2:00 am5 °FClear.12 mph66%30.24 "Hg15 mi
1:00 am7 °FClear.12 mph61%30.25 "Hg15 mi
12:00 am10 °FClear.14 mph56%30.25 "Hg15 mi
11:00 pm
Sun, Apr 23
12 °FClear.12 mph57%30.26 "Hg15 mi
10:00 pm16 °FClear.12 mph53%30.26 "Hg15 mi
9:00 pm19 °FSunny.10 mph49%30.26 "Hg15 mi
Weather by CustomWeather, © 2017

See weather overviewHow to use our weather pages